TimeCST,TemperatureF,Dew PointF,Humidity,Sea Level PressureIn,VisibilityMPH,Wind Direction,Wind SpeedMPH,Gust SpeedMPH,PrecipitationIn,Events,Conditions,WindDirDegrees,DateUTC
12:53 AM,-2.0,-7.1,79,30.33,10.0,Calm,Calm,-,N/A,,Overcast,0,2012-12-27 06:53:00
1:53 AM,1.0,-4.0,79,30.32,10.0,Calm,Calm,-,N/A,,Overcast,0,2012-12-27 07:53:00
2:53 AM,3.9,-0.0,84,30.32,10.0,Calm,Calm,-,N/A,,Overcast,0,2012-12-27 08:53:00
3:53 AM,5.0,1.0,84,30.30,10.0,Calm,Calm,-,N/A,,Overcast,0,2012-12-27 09:53:00
4:53 AM,5.0,1.0,84,30.30,10.0,Calm,Calm,-,N/A,,Overcast,0,2012-12-27 10:53:00
5:53 AM,5.0,-0.0,80,30.30,10.0,Calm,Calm,-,N/A,,Partly Cloudy,0,2012-12-27 11:53:00
6:53 AM,3.9,-0.0,84,30.30,10.0,ENE,3.5,-,N/A,,Overcast,70,2012-12-27 12:53:00
7:53 AM,6.1,1.0,80,30.30,10.0,Calm,Calm,-,N/A,,Overcast,0,2012-12-27 13:53:00
8:53 AM,6.1,1.9,83,30.31,10.0,Calm,Calm,-,N/A,,Overcast,0,2012-12-27 14:53:00
9:53 AM,8.1,3.0,80,30.33,10.0,ESE,3.5,-,N/A,,Overcast,110,2012-12-27 15:53:00
10:53 AM,10.9,7.0,84,30.31,10.0,Calm,Calm,-,N/A,,Overcast,0,2012-12-27 16:53:00
11:53 AM,12.0,5.0,73,30.28,10.0,SSE,4.6,-,N/A,,Mostly Cloudy,150,2012-12-27 17:53:00
12:53 PM,12.0,6.1,77,30.26,10.0,SSE,3.5,-,N/A,,Scattered Clouds,150,2012-12-27 18:53:00
1:53 PM,12.0,6.1,77,30.24,10.0,SSE,3.5,-,N/A,,Overcast,150,2012-12-27 19:53:00
2:53 PM,15.1,8.1,74,30.24,5.0,ESE,3.5,-,0.00,Snow,Light Snow,120,2012-12-27 20:53:00
3:53 PM,15.1,9.0,77,30.23,7.0,ESE,3.5,-,0.00,,Overcast,110,2012-12-27 21:53:00
4:53 PM,15.1,10.0,80,30.23,6.0,Calm,Calm,-,N/A,,Haze,0,2012-12-27 22:53:00
5:53 PM,12.2,8.6,85,30.13,10.0,Calm,Calm,-,N/A,,Overcast,0,2012-12-27 23:53:00
6:53 PM,12.9,9.0,84,30.24,5.0,Calm,Calm,-,0.00,Snow,Light Snow,0,2012-12-28 00:53:00
7:09 PM,12.2,10.4,92,30.13,2.0,Calm,Calm,-,0.00,Snow,Light Snow,0,2012-12-28 01:09:00
7:53 PM,14.0,10.0,84,30.23,3.0,Calm,Calm,-,0.00,Snow,Light Snow,0,2012-12-28 01:53:00
8:28 PM,14.0,10.4,86,30.12,2.5,Calm,Calm,-,0.00,Snow,Light Snow,0,2012-12-28 02:28:00
8:41 PM,14.0,10.4,86,30.12,3.0,Calm,Calm,-,0.00,Snow,Light Snow,0,2012-12-28 02:41:00
8:50 PM,14.0,10.4,86,30.12,2.5,Calm,Calm,-,0.00,Snow,Light Snow,0,2012-12-28 02:50:00
8:53 PM,14.0,10.9,88,30.22,2.5,Calm,Calm,-,0.00,Snow,Light Snow,0,2012-12-28 02:53:00
9:11 PM,14.0,10.4,86,30.11,3.0,Calm,Calm,-,0.00,Snow,Light Snow,0,2012-12-28 03:11:00
9:53 PM,14.0,10.0,84,30.21,10.0,Calm,Calm,-,0.00,,Overcast,0,2012-12-28 03:53:00
10:53 PM,14.0,10.9,88,30.22,2.0,SE,3.5,-,0.00,Snow,Light Snow,130,2012-12-28 04:53:00
11:13 PM,14.0,10.4,86,30.11,3.0,SE,3.5,-,0.00,Snow,Light Snow,130,2012-12-28 05:13:00
11:53 PM,12.9,10.0,88,30.21,4.0,Calm,Calm,-,0.00,Snow,Light Snow,0,2012-12-28 05:53:00